Location: Larrial
(48.2758°N, 4.5331°W)
Time: 12:57:29
(UTC+00:00)

Cosmos 1814 Rocket - Pass Details

Date: 09 April 2020
Orbit: 744 x 787 km, 74.1° (Epoch: 27 May)

Event Time Altitude Azimuth Distance (km) Brightness Sun altitude
Rises 21:37:46 0° 338° (NNW) 3,289 8.4 -23.4°
Reaches altitude 10° 21:40:10 10° 340° (NNW) 2,359 7.4 -23.7°
Maximum altitude 21:45:33 77° 66° (ENE) 814 4.0 -24.3°
Enters shadow 21:46:10 67° 122° (ESE) 853 3.9 -24.4°
